N4RCT Weather Reports


Display with metric or nautical units.
time (UTC)temp
F
wind
direction
speed
MPH
gust
MPH
rain 1hr
in
rain 24hr
in
rain mn
in
humidity
%
barometer
mb
20260505041353 53 100 0.0 0.0 0.00 0.00 0.00 87 1013.6
20260505040850 54 96 0.0 0.0 0.00 0.00 0.00 87 1013.7
20260505040348 54 117 0.0 0.0 0.00 0.00 0.00 87 1013.7
20260505035845 54 117 0.0 0.0 0.00 0.00 0.00 87 1013.7
20260505035340 54 117 0.0 0.0 0.00 0.00 0.00 86 1013.8
20260505034838 54 105 0.0 0.0 0.00 0.00 0.00 84 1013.9
20260505034334 54 105 0.0 0.0 0.00 0.00 0.00 84 1013.7
20260505033832 55 105 0.0 0.0 0.00 0.00 0.00 85 1013.9
20260505033328 55 105 0.0 0.0 0.00 0.00 0.00 84 1013.8
20260505032827 55 105 0.0 0.0 0.00 0.00 0.00 84 1013.9
20260505032323 55 100 0.0 0.0 0.00 0.00 0.00 84 1013.8
20260505031820 55 105 0.0 0.0 0.00 0.00 0.00 84 1013.9
20260505031316 56 105 0.0 0.0 0.00 0.00 0.00 84 1014.0
20260505030814 56 102 0.0 0.0 0.00 0.00 0.00 84 1013.9
20260505030310 56 101 0.0 0.0 0.00 0.00 0.00 83 1013.8
20260505025805 57 108 0.0 0.0 0.00 0.00 0.00 81 1013.9
20260505025304 57 108 0.0 0.0 0.00 0.00 0.00 81 1013.9
20260505024801 57 112 0.0 0.0 0.00 0.00 0.00 82 1013.7
20260505024258 57 105 0.0 0.0 0.00 0.00 0.00 81 1013.8
20260505023756 57 105 0.0 0.0 0.00 0.00 0.00 81 1013.7
20260505023252 57 98 0.0 0.0 0.00 0.00 0.00 80 1013.6
20260505022750 58 102 0.0 0.0 0.00 0.00 0.00 81 1013.6
20260505022247 58 106 0.0 0.0 0.00 0.00 0.00 80 1013.6
20260505021743 58 110 0.0 0.0 0.00 0.00 0.00 79 1013.6
20260505021241 58 117 0.0 0.0 0.00 0.00 0.00 79 1013.6
20260505020736 59 117 0.0 0.0 0.00 0.00 0.00 78 1013.5
20260505020232 59 108 0.0 0.0 0.00 0.00 0.00 78 1013.0
20260505015729 59 108 0.0 0.0 0.00 0.00 0.00 78 1013.1
20260505015226 60 114 0.0 0.0 0.00 0.00 0.00 78 1013.2
20260505014723 60 114 0.0 0.0 0.00 0.00 0.00 78 1013.1
20260505014220 60 118 0.0 0.0 0.00 0.00 0.00 78 1013.0
20260505013717 61 114 0.0 0.0 0.00 0.00 0.00 78 1013.1
20260505013214 61 114 0.0 0.0 0.00 0.00 0.00 77 1012.7
20260505012712 61 108 0.0 0.0 0.00 0.00 0.00 76 1012.9
20260505012209 62 126 0.0 0.0 0.00 0.00 0.00 74 1013.1
20260505011705 62 117 0.0 0.0 0.00 0.00 0.00 73 1013.1
20260505011202 62 117 0.0 0.0 0.00 0.00 0.00 71 1012.8
20260505010657 63 117 0.0 0.0 0.00 0.00 0.00 69 1012.8
20260505010154 64 117 0.0 0.0 0.00 0.00 0.00 69 1012.6
20260505005650 64 117 0.0 0.0 0.00 0.00 0.00 70 1012.7
20260505005148 65 117 0.0 0.0 0.00 0.00 0.00 67 1012.6
20260505004644 65 119 0.0 0.0 0.00 0.00 0.00 67 1012.6
20260505004141 66 119 0.0 0.0 0.00 0.00 0.00 66 1012.7
20260505003638 67 117 0.0 0.0 0.00 0.00 0.00 64 1012.6
20260505003136 68 121 0.0 0.0 0.00 0.00 0.00 64 1012.6
20260505002632 68 119 0.0 0.0 0.00 0.00 0.00 61 1012.6
20260505002130 69 119 0.0 0.0 0.00 0.00 0.00 58 1012.6
20260505001627 70 114 0.0 0.0 0.00 0.00 0.00 54 1012.5
20260505001125 70 120 0.0 0.0 0.00 0.00 0.00 55 1012.7
20260505000621 71 128 0.0 0.0 0.00 0.00 0.00 53 1012.4
20260505000120 71 101 0.0 0.0 0.00 0.00 0.00 52 1012.5
20260504235615 71 119 0.0 0.0 0.00 0.00 0.00 52 1012.5
20260504235112 72 140 0.0 0.0 0.00 0.00 0.00 51 1012.7
20260504234609 72 121 0.0 0.0 0.00 0.00 0.00 50 1012.6
20260504234106 72 120 0.0 0.0 0.00 0.00 0.00 51 1012.2
20260504233602 73 143 0.0 0.0 0.00 0.00 0.00 49 1012.5
20260504233058 73 117 0.0 1.0 0.00 0.00 0.00 48 1012.4
20260504232556 73 128 0.0 0.0 0.00 0.00 0.00 48 1012.4
20260504232053 74 122 0.0 0.0 0.00 0.00 0.00 48 1012.5
20260504231549 74 120 0.0 0.0 0.00 0.00 0.00 47 1012.7
20260504231046 74 121 0.0 0.0 0.00 0.00 0.00 46 1012.5
20260504230542 75 140 0.0 0.0 0.00 0.00 0.00 47 1012.4
20260504230041 75 217 2.0 3.0 0.00 0.00 0.00 44 1012.4
20260504225538 75 169 0.0 0.0 0.00 0.00 0.00 45 1012.4
20260504225035 75 146 0.0 1.0 0.00 0.00 0.00 45 1012.4
20260504224531 75 160 0.0 1.0 0.00 0.00 0.00 44 1012.4
20260504224029 76 179 0.0 0.0 0.00 0.00 0.00 44 1012.5
20260504223525 76 153 0.0 0.0 0.00 0.00 0.00 43 1012.7
20260504223021 76 145 0.0 0.0 0.00 0.00 0.00 43 1012.5
20260504222518 76 155 1.0 1.0 0.00 0.00 0.00 44 1012.6
20260504222016 76 180 0.0 1.0 0.00 0.00 0.00 43 1012.7
20260504221513 76 58 2.0 3.0 0.00 0.00 0.00 48 1012.6
20260504221009 76 182 1.0 1.0 0.00 0.00 0.00 45 1012.6
20260504220506 76 102 0.0 0.0 0.00 0.00 0.00 45 1012.4
20260504220003 76 108 0.0 0.0 0.00 0.00 0.00 47 1012.8
20260504215459 76 191 1.0 1.0 0.00 0.00 0.00 47 1012.5
20260504214956 77 167 1.0 1.0 0.00 0.00 0.00 48 1012.6
20260504214453 77 131 0.0 0.0 0.00 0.00 0.00 46 1012.3
20260504213949 77 134 1.0 1.0 0.00 0.00 0.00 45 1012.6
20260504213445 77 155 0.0 0.0 0.00 0.00 0.00 44 1012.4
20260504212943 77 60 3.0 5.0 0.00 0.00 0.00 43 1012.5
20260504212438 77 104 0.0 0.0 0.00 0.00 0.00 43 1012.6
20260504211937 77 75 1.0 2.0 0.00 0.00 0.00 46 1012.6
20260504211433 77 112 0.0 1.0 0.00 0.00 0.00 44 1012.7
20260504210930 77 81 0.0 0.0 0.00 0.00 0.00 44 1012.9
20260504210427 77 92 1.0 1.0 0.00 0.00 0.00 43 1012.6
20260504205924 77 149 0.0 0.0 0.00 0.00 0.00 44 1012.9
20260504205422 76 143 0.0 0.0 0.00 0.00 0.00 46 1012.9
20260504204920 76 178 1.0 1.0 0.00 0.00 0.00 47 1012.8
20260504204418 76 166 0.0 1.0 0.00 0.00 0.00 46 1012.7
20260504203917 77 182 0.0 1.0 0.00 0.00 0.00 47 1013.0
20260504203414 77 159 0.0 0.0 0.00 0.00 0.00 44 1012.9
20260504202909 77 183 1.0 1.0 0.00 0.00 0.00 47 1013.2
20260504202407 78 176 1.0 1.0 0.00 0.00 0.00 46 1013.0
20260504201903 78 104 0.0 0.0 0.00 0.00 0.00 45 1013.3
20260504201401 78 104 0.0 0.0 0.00 0.00 0.00 42 1013.2
20260504200858 77 89 0.0 0.0 0.00 0.00 0.00 47 1013.3
20260504200354 76 179 0.0 0.0 0.00 0.00 0.00 53 1013.5
20260504195851 76 110 0.0 0.0 0.00 0.00 0.00 50 1013.5
20260504195346 76 150 0.0 0.0 0.00 0.00 0.00 49 1013.6
20260504194843 77 174 0.0 0.0 0.00 0.00 0.00 45 1013.6
20260504194339 77 76 0.0 0.0 0.00 0.00 0.00 43 1013.5
20260504193835 77 145 1.0 1.0 0.00 0.00 0.00 46 1013.8
20260504193333 76 102 0.0 0.0 0.00 0.00 0.00 45 1013.8
20260504192832 77 173 1.0 1.0 0.00 0.00 0.00 47 1013.7
20260504192329 78 105 0.0 0.0 0.00 0.00 0.00 44 1014.2
20260504191827 79 90 0.0 0.0 0.00 0.00 0.00 42 1014.3
20260504191325 78 30 0.0 1.0 0.00 0.00 0.00 45 1014.1
20260504190820 77 100 1.0 1.0 0.00 0.00 0.00 46 1014.2
20260504190316 77 149 0.0 1.0 0.00 0.00 0.00 46 1014.5
20260504185813 77 44 3.0 3.0 0.00 0.00 0.00 44 1014.3
20260504185310 77 255 1.0 2.0 0.00 0.00 0.00 47 1014.6
20260504184806 78 115 0.0 0.0 0.00 0.00 0.00 48 1014.8
20260504184302 78 197 1.0 2.0 0.00 0.00 0.00 48 1014.7
20260504183758 77 178 0.0 1.0 0.00 0.00 0.00 50 1014.6
20260504183255 75 179 1.0 1.0 0.00 0.00 0.00 48 1014.8
20260504182753 77 231 2.0 2.0 0.00 0.00 0.00 46 1014.8
20260504182250 78 168 2.0 2.0 0.00 0.00 0.00 45 1014.6
20260504181748 78 131 1.0 1.0 0.00 0.00 0.00 46 1014.9
20260504181245 78 177 1.0 1.0 0.00 0.00 0.00 44 1015.1
20260504180744 78 185 1.0 1.0 0.00 0.00 0.00 46 1014.8
20260504180242 77 165 1.0 2.0 0.00 0.00 0.00 47 1015.0
20260504175739 76 135 0.0 0.0 0.00 0.00 0.00 46 1014.8
20260504175236 75 117 0.0 0.0 0.00 0.00 0.00 47 1015.3
20260504174734 75 209 1.0 3.0 0.00 0.00 0.00 48 1015.3
20260504174232 75 113 0.0 1.0 0.00 0.00 0.00 49 1015.2
20260504173728 76 167 1.0 1.0 0.00 0.00 0.00 48 1015.3
20260504173225 75 75 0.0 0.0 0.00 0.00 0.00 46 1015.4
20260504172722 74 94 0.0 0.0 0.00 0.00 0.00 49 1015.5
20260504172218 75 36 2.0 3.0 0.00 0.00 0.00 46 1015.7
20260504171715 76 203 0.0 1.0 0.00 0.00 0.00 48 1015.5
20260504171212 75 74 0.0 1.0 0.00 0.00 0.00 48 1015.9
20260504170708 74 129 1.0 2.0 0.00 0.00 0.00 50 1015.7
20260504170206 74 146 0.0 0.0 0.00 0.00 0.00 47 1015.9
20260504160124 71 174 1.0 1.0 0.00 0.00 0.00 52 1016.7
20260504151051 67 179 0.0 1.0 0.00 0.00 0.00 60 1016.8
20260504150549 68 169 0.0 1.0 0.00 0.00 0.00 57 1016.7
20260504141015 62 99 0.0 0.0 0.00 0.00 0.00 66 1017.3
20260504140511 62 119 0.0 0.0 0.00 0.00 0.00 68 1017.4
20260504130436 57 118 0.0 0.0 0.00 0.00 0.00 74 1017.2
20260504110322 41 109 0.0 0.0 0.00 0.00 0.00 98 1016.9
20260504100235 41 119 0.0 0.0 0.00 0.00 0.00 98 1016.6
20260504081628 41 121 0.0 0.0 0.00 0.00 0.00 97 1016.5
20260504081124 41 119 0.0 0.0 0.00 0.00 0.00 97 1016.5
20260504080621 41 109 0.0 0.0 0.00 0.00 0.00 97 1016.6
20260504080117 41 117 0.0 0.0 0.00 0.00 0.00 97 1016.6
20260504050433 45 109 0.0 0.0 0.00 0.00 0.00 94 1017.2